segment_id,date_local,uptime,ped_lft,ped_rgt,ped_total,bike_lft,bike_rgt,bike_total,car_lft,car_rgt,car_total,heavy_lft,heavy_rgt,heavy_total,v85,car_speed0,car_speed10,car_speed20,car_speed30,car_speed40,car_speed50,car_speed60,car_speed70
100024661,2022-10-01 00:00,1.0,,,,86,60,146,,,,,,,
100024661,2022-10-01 01:00,1.0,,,,60,61,121,,,,,,,
100024661,2022-10-01 02:00,1.0,,,,43,25,68,,,,,,,
100024661,2022-10-01 03:00,1.0,,,,25,21,46,,,,,,,
100024661,2022-10-01 04:00,1.0,,,,20,13,33,,,,,,,
100024661,2022-10-01 05:00,1.0,,,,22,17,39,,,,,,,
100024661,2022-10-01 06:00,1.0,,,,16,12,28,,,,,,,
100024661,2022-10-01 07:00,1.0,,,,31,16,47,,,,,,,
100024661,2022-10-01 08:00,1.0,,,,46,42,88,,,,,,,
100024661,2022-10-01 09:00,1.0,,,,82,84,166,,,,,,,
100024661,2022-10-01 10:00,1.0,,,,136,101,237,,,,,,,
100024661,2022-10-01 11:00,1.0,,,,122,114,236,,,,,,,
100024661,2022-10-01 12:00,1.0,,,,103,123,226,,,,,,,
100024661,2022-10-01 13:00,1.0,,,,74,93,167,,,,,,,
100024661,2022-10-01 14:00,1.0,,,,124,94,218,,,,,,,
100024661,2022-10-01 15:00,1.0,,,,100,127,227,,,,,,,
100024661,2022-10-01 16:00,1.0,,,,100,96,196,,,,,,,
100024661,2022-10-01 17:00,1.0,,,,112,127,239,,,,,,,
100024661,2022-10-01 18:00,1.0,,,,126,167,293,,,,,,,
100024661,2022-10-01 19:00,1.0,,,,123,139,262,,,,,,,
100024661,2022-10-01 20:00,1.0,,,,79,95,174,,,,,,,
100024661,2022-10-01 21:00,1.0,,,,75,60,135,,,,,,,
100024661,2022-10-01 22:00,1.0,,,,43,59,102,,,,,,,
100024661,2022-10-01 23:00,1.0,,,,57,48,105,,,,,,,
100024661,2022-10-02 00:00,1.0,,,,39,34,73,,,,,,,
100024661,2022-10-02 01:00,1.0,,,,23,29,52,,,,,,,
100024661,2022-10-02 02:00,1.0,,,,21,18,39,,,,,,,
100024661,2022-10-02 03:00,1.0,,,,26,7,33,,,,,,,
100024661,2022-10-02 04:00,1.0,,,,19,13,32,,,,,,,
100024661,2022-10-02 05:00,1.0,,,,13,8,21,,,,,,,
100024661,2022-10-02 06:00,1.0,,,,14,14,28,,,,,,,
100024661,2022-10-02 07:00,1.0,,,,23,17,40,,,,,,,
100024661,2022-10-02 08:00,1.0,,,,23,38,61,,,,,,,
100024661,2022-10-02 09:00,1.0,,,,54,63,117,,,,,,,
100024661,2022-10-02 10:00,1.0,,,,87,84,171,,,,,,,
100024661,2022-10-02 11:00,1.0,,,,107,121,228,,,,,,,
100024661,2022-10-02 12:00,1.0,,,,101,103,204,,,,,,,
100024661,2022-10-02 13:00,1.0,,,,93,106,199,,,,,,,
100024661,2022-10-02 14:00,1.0,,,,125,131,256,,,,,,,
100024661,2022-10-02 15:00,1.0,,,,156,165,321,,,,,,,
100024661,2022-10-02 16:00,1.0,,,,159,139,298,,,,,,,
100024661,2022-10-02 17:00,1.0,,,,178,109,287,,,,,,,
100024661,2022-10-02 18:00,1.0,,,,174,147,321,,,,,,,
100024661,2022-10-02 19:00,1.0,,,,133,129,262,,,,,,,
100024661,2022-10-02 20:00,1.0,,,,111,89,200,,,,,,,
100024661,2022-10-02 21:00,1.0,,,,69,74,143,,,,,,,
100024661,2022-10-02 22:00,1.0,,,,69,62,131,,,,,,,
100024661,2022-10-02 23:00,1.0,,,,60,52,112,,,,,,,
100024661,2022-10-03 00:00,1.0,,,,38,52,90,,,,,,,
100024661,2022-10-03 01:00,1.0,,,,28,28,56,,,,,,,
100024661,2022-10-03 02:00,1.0,,,,26,18,44,,,,,,,
100024661,2022-10-03 03:00,1.0,,,,10,8,18,,,,,,,
100024661,2022-10-03 04:00,1.0,,,,8,12,20,,,,,,,
100024661,2022-10-03 05:00,1.0,,,,5,10,15,,,,,,,
100024661,2022-10-03 06:00,1.0,,,,12,8,20,,,,,,,
100024661,2022-10-03 07:00,1.0,,,,22,16,38,,,,,,,
100024661,2022-10-03 08:00,1.0,,,,30,24,54,,,,,,,
100024661,2022-10-03 09:00,1.0,,,,71,54,125,,,,,,,
100024661,2022-10-03 10:00,1.0,,,,73,84,157,,,,,,,
100024661,2022-10-03 11:00,1.0,,,,89,84,173,,,,,,,
100024661,2022-10-03 12:00,1.0,,,,121,106,227,,,,,,,
100024661,2022-10-03 13:00,1.0,,,,138,134,272,,,,,,,
100024661,2022-10-03 14:00,1.0,,,,142,141,283,,,,,,,
100024661,2022-10-03 15:00,1.0,,,,166,170,336,,,,,,,
100024661,2022-10-03 16:00,1.0,,,,178,142,320,,,,,,,
100024661,2022-10-03 17:00,1.0,,,,178,181,359,,,,,,,
100024661,2022-10-03 18:00,1.0,,,,193,171,364,,,,,,,
100024661,2022-10-03 19:00,1.0,,,,118,138,256,,,,,,,
100024661,2022-10-03 20:00,1.0,,,,89,87,176,,,,,,,
100024661,2022-10-03 21:00,1.0,,,,79,76,155,,,,,,,
100024661,2022-10-03 22:00,1.0,,,,65,68,133,,,,,,,
100024661,2022-10-03 23:00,1.0,,,,40,42,82,,,,,,,
100024661,2022-10-04 00:00,1.0,,,,24,32,56,,,,,,,
100024661,2022-10-04 01:00,1.0,,,,10,12,22,,,,,,,
100024661,2022-10-04 02:00,1.0,,,,5,8,13,,,,,,,
100024661,2022-10-04 03:00,1.0,,,,4,10,14,,,,,,,
100024661,2022-10-04 04:00,1.0,,,,9,10,19,,,,,,,
100024661,2022-10-04 05:00,1.0,,,,16,31,47,,,,,,,
100024661,2022-10-04 06:00,1.0,,,,43,84,127,,,,,,,
100024661,2022-10-04 07:00,1.0,,,,164,309,473,,,,,,,
100024661,2022-10-04 08:00,1.0,,,,351,707,1058,,,,,,,
100024661,2022-10-04 09:00,1.0,,,,369,481,850,,,,,,,
100024661,2022-10-04 10:00,1.0,,,,171,218,389,,,,,,,
100024661,2022-10-04 11:00,1.0,,,,205,181,386,,,,,,,
100024661,2022-10-04 12:00,1.0,,,,188,222,410,,,,,,,
100024661,2022-10-04 13:00,1.0,,,,225,223,448,,,,,,,
100024661,2022-10-04 14:00,1.0,,,,254,222,476,,,,,,,
100024661,2022-10-04 15:00,1.0,,,,363,272,635,,,,,,,
100024661,2022-10-04 16:00,1.0,,,,443,282,725,,,,,,,
100024661,2022-10-04 17:00,1.0,,,,562,416,978,,,,,,,
100024661,2022-10-04 18:00,1.0,,,,636,492,1128,,,,,,,
100024661,2022-10-04 19:00,1.0,,,,382,341,723,,,,,,,
100024661,2022-10-04 20:00,1.0,,,,211,180,391,,,,,,,
100024661,2022-10-04 21:00,1.0,,,,167,123,290,,,,,,,
100024661,2022-10-04 22:00,1.0,,,,127,113,240,,,,,,,
100024661,2022-10-04 23:00,1.0,,,,74,80,154,,,,,,,
100024661,2022-10-05 00:00,1.0,,,,38,29,67,,,,,,,
100024661,2022-10-05 01:00,1.0,,,,6,15,21,,,,,,,
100024661,2022-10-05 02:00,1.0,,,,13,15,28,,,,,,,
100024661,2022-10-05 03:00,1.0,,,,11,13,24,,,,,,,
100024661,2022-10-05 04:00,1.0,,,,9,11,20,,,,,,,
100024661,2022-10-05 05:00,1.0,,,,18,31,49,,,,,,,
100024661,2022-10-05 06:00,1.0,,,,49,97,146,,,,,,,
100024661,2022-10-05 07:00,1.0,,,,166,320,486,,,,,,,
100024661,2022-10-05 08:00,1.0,,,,338,687,1025,,,,,,,
100024661,2022-10-05 09:00,1.0,,,,350,528,878,,,,,,,
100024661,2022-10-05 10:00,1.0,,,,202,222,424,,,,,,,
100024661,2022-10-05 11:00,1.0,,,,206,200,406,,,,,,,
100024661,2022-10-05 12:00,1.0,,,,231,222,453,,,,,,,
100024661,2022-10-05 13:00,1.0,,,,233,222,455,,,,,,,
100024661,2022-10-05 14:00,1.0,,,,262,264,526,,,,,,,
100024661,2022-10-05 15:00,1.0,,,,394,296,690,,,,,,,
100024661,2022-10-05 16:00,1.0,,,,451,366,817,,,,,,,
100024661,2022-10-05 17:00,1.0,,,,605,411,1016,,,,,,,
100024661,2022-10-05 18:00,1.0,,,,676,490,1166,,,,,,,
100024661,2022-10-05 19:00,1.0,,,,451,347,798,,,,,,,
100024661,2022-10-05 20:00,1.0,,,,220,223,443,,,,,,,
100024661,2022-10-05 21:00,1.0,,,,172,158,330,,,,,,,
100024661,2022-10-05 22:00,1.0,,,,157,132,289,,,,,,,
100024661,2022-10-05 23:00,1.0,,,,99,94,193,,,,,,,
100024661,2022-10-06 00:00,1.0,,,,69,47,116,,,,,,,
100024661,2022-10-06 01:00,1.0,,,,23,24,47,,,,,,,
100024661,2022-10-06 02:00,1.0,,,,9,12,21,,,,,,,
100024661,2022-10-06 03:00,1.0,,,,7,13,20,,,,,,,
100024661,2022-10-06 04:00,1.0,,,,14,8,22,,,,,,,
100024661,2022-10-06 05:00,1.0,,,,13,30,43,,,,,,,
100024661,2022-10-06 06:00,1.0,,,,52,81,133,,,,,,,
100024661,2022-10-06 07:00,1.0,,,,149,275,424,,,,,,,
100024661,2022-10-06 08:00,1.0,,,,395,702,1097,,,,,,,
100024661,2022-10-06 09:00,1.0,,,,353,502,855,,,,,,,
100024661,2022-10-06 10:00,1.0,,,,204,257,461,,,,,,,
100024661,2022-10-06 11:00,1.0,,,,213,189,402,,,,,,,
100024661,2022-10-06 12:00,1.0,,,,227,196,423,,,,,,,
100024661,2022-10-06 13:00,1.0,,,,222,270,492,,,,,,,
100024661,2022-10-06 14:00,1.0,,,,306,221,527,,,,,,,
100024661,2022-10-06 15:00,1.0,,,,392,312,704,,,,,,,
100024661,2022-10-06 16:00,1.0,,,,408,356,764,,,,,,,
100024661,2022-10-06 17:00,1.0,,,,541,480,1021,,,,,,,
100024661,2022-10-06 18:00,1.0,,,,611,548,1159,,,,,,,
100024661,2022-10-06 19:00,1.0,,,,441,357,798,,,,,,,
100024661,2022-10-06 20:00,1.0,,,,260,201,461,,,,,,,
100024661,2022-10-06 21:00,1.0,,,,202,159,361,,,,,,,
100024661,2022-10-06 22:00,1.0,,,,164,134,298,,,,,,,
100024661,2022-10-06 23:00,1.0,,,,136,104,240,,,,,,,
100024661,2022-10-07 00:00,1.0,,,,69,46,115,,,,,,,
100024661,2022-10-07 01:00,1.0,,,,38,27,65,,,,,,,
100024661,2022-10-07 02:00,1.0,,,,22,12,34,,,,,,,
100024661,2022-10-07 03:00,1.0,,,,18,16,34,,,,,,,
100024661,2022-10-07 04:00,1.0,,,,13,10,23,,,,,,,
100024661,2022-10-07 05:00,1.0,,,,25,30,55,,,,,,,
100024661,2022-10-07 06:00,1.0,,,,51,58,109,,,,,,,
100024661,2022-10-07 07:00,1.0,,,,130,215,345,,,,,,,
100024661,2022-10-07 08:00,1.0,,,,257,472,729,,,,,,,
100024661,2022-10-07 09:00,1.0,,,,285,379,664,,,,,,,
100024661,2022-10-07 10:00,1.0,,,,199,223,422,,,,,,,
100024661,2022-10-07 11:00,1.0,,,,198,201,399,,,,,,,
100024661,2022-10-07 12:00,1.0,,,,228,224,452,,,,,,,
100024661,2022-10-07 13:00,1.0,,,,264,251,515,,,,,,,
100024661,2022-10-07 14:00,1.0,,,,317,277,594,,,,,,,
100024661,2022-10-07 15:00,1.0,,,,401,288,689,,,,,,,
100024661,2022-10-07 16:00,1.0,,,,401,321,722,,,,,,,
100024661,2022-10-07 17:00,1.0,,,,489,389,878,,,,,,,
100024661,2022-10-07 18:00,1.0,,,,443,394,837,,,,,,,
100024661,2022-10-07 19:00,1.0,,,,361,295,656,,,,,,,
100024661,2022-10-07 20:00,1.0,,,,198,214,412,,,,,,,
100024661,2022-10-07 21:00,1.0,,,,155,159,314,,,,,,,
100024661,2022-10-07 22:00,1.0,,,,141,134,275,,,,,,,
100024661,2022-10-07 23:00,1.0,,,,102,127,229,,,,,,,
100024661,2022-10-08 00:00,1.0,,,,81,104,185,,,,,,,
100024661,2022-10-08 01:00,1.0,,,,67,70,137,,,,,,,
100024661,2022-10-08 02:00,1.0,,,,32,36,68,,,,,,,
100024661,2022-10-08 03:00,1.0,,,,37,26,63,,,,,,,
100024661,2022-10-08 04:00,1.0,,,,29,19,48,,,,,,,
100024661,2022-10-08 05:00,1.0,,,,16,9,25,,,,,,,
100024661,2022-10-08 06:00,1.0,,,,19,10,29,,,,,,,
100024661,2022-10-08 07:00,1.0,,,,30,12,42,,,,,,,
100024661,2022-10-08 08:00,1.0,,,,56,48,104,,,,,,,
100024661,2022-10-08 09:00,1.0,,,,115,134,249,,,,,,,
100024661,2022-10-08 10:00,1.0,,,,163,123,286,,,,,,,
100024661,2022-10-08 11:00,1.0,,,,173,166,339,,,,,,,
100024661,2022-10-08 12:00,1.0,,,,211,188,399,,,,,,,
100024661,2022-10-08 13:00,1.0,,,,180,201,381,,,,,,,
100024661,2022-10-08 14:00,1.0,,,,210,226,436,,,,,,,
100024661,2022-10-08 15:00,1.0,,,,217,222,439,,,,,,,
100024661,2022-10-08 16:00,1.0,,,,213,193,406,,,,,,,
100024661,2022-10-08 17:00,1.0,,,,235,243,478,,,,,,,
100024661,2022-10-08 18:00,1.0,,,,226,213,439,,,,,,,
100024661,2022-10-08 19:00,1.0,,,,172,210,382,,,,,,,
100024661,2022-10-08 20:00,1.0,,,,129,128,257,,,,,,,
100024661,2022-10-08 21:00,1.0,,,,96,104,200,,,,,,,
100024661,2022-10-08 22:00,1.0,,,,82,84,166,,,,,,,
100024661,2022-10-08 23:00,1.0,,,,78,94,172,,,,,,,
100024661,2022-10-09 00:00,1.0,,,,55,56,111,,,,,,,
100024661,2022-10-09 01:00,1.0,,,,44,51,95,,,,,,,
100024661,2022-10-09 02:00,1.0,,,,43,24,67,,,,,,,
100024661,2022-10-09 03:00,1.0,,,,27,23,50,,,,,,,
100024661,2022-10-09 04:00,1.0,,,,19,13,32,,,,,,,
100024661,2022-10-09 05:00,1.0,,,,13,8,21,,,,,,,
100024661,2022-10-09 06:00,1.0,,,,14,14,28,,,,,,,
100024661,2022-10-09 07:00,1.0,,,,21,17,38,,,,,,,
100024661,2022-10-09 08:00,1.0,,,,37,51,88,,,,,,,
100024661,2022-10-09 09:00,1.0,,,,63,61,124,,,,,,,
100024661,2022-10-09 10:00,1.0,,,,96,102,198,,,,,,,
100024661,2022-10-09 11:00,1.0,,,,126,134,260,,,,,,,
100024661,2022-10-09 12:00,1.0,,,,155,171,326,,,,,,,
100024661,2022-10-09 13:00,1.0,,,,169,202,371,,,,,,,
100024661,2022-10-09 14:00,1.0,,,,212,209,421,,,,,,,
100024661,2022-10-09 15:00,1.0,,,,223,222,445,,,,,,,
100024661,2022-10-09 16:00,1.0,,,,202,217,419,,,,,,,
100024661,2022-10-09 17:00,1.0,,,,245,197,442,,,,,,,
100024661,2022-10-09 18:00,1.0,,,,213,186,399,,,,,,,
100024661,2022-10-09 19:00,1.0,,,,212,180,392,,,,,,,
100024661,2022-10-09 20:00,1.0,,,,118,101,219,,,,,,,
100024661,2022-10-09 21:00,1.0,,,,106,91,197,,,,,,,
100024661,2022-10-09 22:00,1.0,,,,82,98,180,,,,,,,
100024661,2022-10-09 23:00,1.0,,,,51,51,102,,,,,,,
100024661,2022-10-10 00:00,1.0,,,,22,23,45,,,,,,,
100024661,2022-10-10 01:00,1.0,,,,9,11,20,,,,,,,
100024661,2022-10-10 02:00,1.0,,,,6,8,14,,,,,,,
100024661,2022-10-10 03:00,1.0,,,,6,6,12,,,,,,,
100024661,2022-10-10 04:00,1.0,,,,6,17,23,,,,,,,
100024661,2022-10-10 05:00,1.0,,,,21,30,51,,,,,,,
100024661,2022-10-10 06:00,1.0,,,,50,90,140,,,,,,,
100024661,2022-10-10 07:00,1.0,,,,154,270,424,,,,,,,
100024661,2022-10-10 08:00,1.0,,,,391,663,1054,,,,,,,
100024661,2022-10-10 09:00,1.0,,,,364,469,833,,,,,,,
100024661,2022-10-10 10:00,1.0,,,,143,202,345,,,,,,,
100024661,2022-10-10 11:00,1.0,,,,175,161,336,,,,,,,
100024661,2022-10-10 12:00,1.0,,,,216,177,393,,,,,,,
100024661,2022-10-10 13:00,1.0,,,,206,229,435,,,,,,,
100024661,2022-10-10 14:00,1.0,,,,284,225,509,,,,,,,
100024661,2022-10-10 15:00,1.0,,,,409,311,720,,,,,,,
100024661,2022-10-10 16:00,1.0,,,,432,299,731,,,,,,,
100024661,2022-10-10 17:00,1.0,,,,555,398,953,,,,,,,
100024661,2022-10-10 18:00,1.0,,,,566,475,1041,,,,,,,
100024661,2022-10-10 19:00,1.0,,,,354,358,712,,,,,,,
100024661,2022-10-10 20:00,1.0,,,,200,199,399,,,,,,,
100024661,2022-10-10 21:00,1.0,,,,172,154,326,,,,,,,
100024661,2022-10-10 22:00,1.0,,,,121,105,226,,,,,,,
100024661,2022-10-10 23:00,1.0,,,,85,52,137,,,,,,,
100024661,2022-10-11 00:00,1.0,,,,27,25,52,,,,,,,
100024661,2022-10-11 01:00,1.0,,,,15,37,52,,,,,,,
100024661,2022-10-11 02:00,1.0,,,,5,8,13,,,,,,,
100024661,2022-10-11 03:00,1.0,,,,7,6,13,,,,,,,
100024661,2022-10-11 04:00,1.0,,,,10,15,25,,,,,,,
100024661,2022-10-11 05:00,1.0,,,,17,34,51,,,,,,,
100024661,2022-10-11 06:00,1.0,,,,48,99,147,,,,,,,
100024661,2022-10-11 07:00,1.0,,,,179,305,484,,,,,,,
100024661,2022-10-11 08:00,1.0,,,,417,747,1164,,,,,,,
100024661,2022-10-11 09:00,1.0,,,,365,545,910,,,,,,,
100024661,2022-10-11 10:00,1.0,,,,209,213,422,,,,,,,
100024661,2022-10-11 11:00,1.0,,,,192,232,424,,,,,,,
100024661,2022-10-11 12:00,1.0,,,,248,228,476,,,,,,,
100024661,2022-10-11 13:00,1.0,,,,234,246,480,,,,,,,
100024661,2022-10-11 14:00,1.0,,,,322,233,555,,,,,,,
100024661,2022-10-11 15:00,1.0,,,,413,311,724,,,,,,,
100024661,2022-10-11 16:00,1.0,,,,462,321,783,,,,,,,
100024661,2022-10-11 17:00,1.0,,,,591,422,1013,,,,,,,
100024661,2022-10-11 18:00,1.0,,,,607,572,1179,,,,,,,
100024661,2022-10-11 19:00,1.0,,,,427,352,779,,,,,,,
100024661,2022-10-11 20:00,1.0,,,,221,218,439,,,,,,,
100024661,2022-10-11 21:00,1.0,,,,193,151,344,,,,,,,
100024661,2022-10-11 22:00,1.0,,,,167,116,283,,,,,,,
100024661,2022-10-11 23:00,1.0,,,,88,104,192,,,,,,,
100024661,2022-10-12 00:00,1.0,,,,53,40,93,,,,,,,
100024661,2022-10-12 01:00,1.0,,,,23,18,41,,,,,,,
100024661,2022-10-12 02:00,1.0,,,,18,5,23,,,,,,,
100024661,2022-10-12 03:00,1.0,,,,4,4,8,,,,,,,
100024661,2022-10-12 04:00,1.0,,,,8,13,21,,,,,,,
100024661,2022-10-12 05:00,1.0,,,,18,40,58,,,,,,,
100024661,2022-10-12 06:00,1.0,,,,50,95,145,,,,,,,
100024661,2022-10-12 07:00,1.0,,,,192,317,509,,,,,,,
100024661,2022-10-12 08:00,1.0,,,,347,707,1054,,,,,,,
100024661,2022-10-12 09:00,1.0,,,,347,540,887,,,,,,,
100024661,2022-10-12 10:00,1.0,,,,218,247,465,,,,,,,
100024661,2022-10-12 11:00,1.0,,,,192,212,404,,,,,,,
100024661,2022-10-12 12:00,1.0,,,,236,225,461,,,,,,,
100024661,2022-10-12 13:00,1.0,,,,291,273,564,,,,,,,
100024661,2022-10-12 14:00,1.0,,,,277,249,526,,,,,,,
100024661,2022-10-12 15:00,1.0,,,,382,306,688,,,,,,,
100024661,2022-10-12 16:00,1.0,,,,407,311,718,,,,,,,
100024661,2022-10-12 17:00,1.0,,,,544,376,920,,,,,,,
100024661,2022-10-12 18:00,1.0,,,,657,504,1161,,,,,,,
100024661,2022-10-12 19:00,1.0,,,,408,345,753,,,,,,,
100024661,2022-10-12 20:00,1.0,,,,216,181,397,,,,,,,
100024661,2022-10-12 21:00,1.0,,,,159,177,336,,,,,,,
100024661,2022-10-12 22:00,1.0,,,,161,133,294,,,,,,,
100024661,2022-10-12 23:00,1.0,,,,88,80,168,,,,,,,
100024661,2022-10-13 00:00,1.0,,,,47,57,104,,,,,,,
100024661,2022-10-13 01:00,1.0,,,,16,27,43,,,,,,,
100024661,2022-10-13 02:00,1.0,,,,16,9,25,,,,,,,
100024661,2022-10-13 03:00,1.0,,,,14,9,23,,,,,,,
100024661,2022-10-13 04:00,1.0,,,,13,10,23,,,,,,,
100024661,2022-10-13 05:00,1.0,,,,20,33,53,,,,,,,
100024661,2022-10-13 06:00,1.0,,,,47,84,131,,,,,,,
100024661,2022-10-13 07:00,1.0,,,,165,283,448,,,,,,,
100024661,2022-10-13 08:00,1.0,,,,353,660,1013,,,,,,,
100024661,2022-10-13 09:00,1.0,,,,327,500,827,,,,,,,
100024661,2022-10-13 10:00,1.0,,,,215,233,448,,,,,,,
100024661,2022-10-13 11:00,1.0,,,,177,243,420,,,,,,,
100024661,2022-10-13 12:00,1.0,,,,194,217,411,,,,,,,
100024661,2022-10-13 13:00,1.0,,,,264,268,532,,,,,,,
100024661,2022-10-13 14:00,1.0,,,,317,243,560,,,,,,,
100024661,2022-10-13 15:00,1.0,,,,378,249,627,,,,,,,
100024661,2022-10-13 16:00,1.0,,,,424,292,716,,,,,,,
100024661,2022-10-13 17:00,1.0,,,,519,396,915,,,,,,,
100024661,2022-10-13 18:00,1.0,,,,637,514,1151,,,,,,,
100024661,2022-10-13 19:00,1.0,,,,377,369,746,,,,,,,
100024661,2022-10-13 20:00,1.0,,,,269,185,454,,,,,,,
100024661,2022-10-13 21:00,1.0,,,,184,171,355,,,,,,,
100024661,2022-10-13 22:00,1.0,,,,168,154,322,,,,,,,
100024661,2022-10-13 23:00,1.0,,,,105,128,233,,,,,,,
100024661,2022-10-14 00:00,1.0,,,,86,69,155,,,,,,,
100024661,2022-10-14 01:00,1.0,,,,32,22,54,,,,,,,
100024661,2022-10-14 02:00,1.0,,,,20,10,30,,,,,,,
100024661,2022-10-14 03:00,1.0,,,,5,6,11,,,,,,,
100024661,2022-10-14 04:00,1.0,,,,16,13,29,,,,,,,
100024661,2022-10-14 05:00,1.0,,,,16,34,50,,,,,,,
100024661,2022-10-14 06:00,1.0,,,,41,71,112,,,,,,,
100024661,2022-10-14 07:00,1.0,,,,129,232,361,,,,,,,
100024661,2022-10-14 08:00,1.0,,,,300,447,747,,,,,,,
100024661,2022-10-14 09:00,1.0,,,,288,392,680,,,,,,,
100024661,2022-10-14 10:00,1.0,,,,186,186,372,,,,,,,
100024661,2022-10-14 11:00,1.0,,,,179,169,348,,,,,,,
100024661,2022-10-14 12:00,1.0,,,,235,209,444,,,,,,,
100024661,2022-10-14 13:00,1.0,,,,260,249,509,,,,,,,
100024661,2022-10-14 14:00,1.0,,,,296,271,567,,,,,,,
100024661,2022-10-14 15:00,1.0,,,,352,257,609,,,,,,,
100024661,2022-10-14 16:00,1.0,,,,401,264,665,,,,,,,
100024661,2022-10-14 17:00,1.0,,,,435,349,784,,,,,,,
100024661,2022-10-14 18:00,1.0,,,,451,380,831,,,,,,,
100024661,2022-10-14 19:00,1.0,,,,351,330,681,,,,,,,
100024661,2022-10-14 20:00,1.0,,,,228,210,438,,,,,,,
100024661,2022-10-14 21:00,1.0,,,,189,156,345,,,,,,,
100024661,2022-10-14 22:00,1.0,,,,119,149,268,,,,,,,
100024661,2022-10-14 23:00,1.0,,,,120,133,253,,,,,,,
100024661,2022-10-15 00:00,1.0,,,,103,100,203,,,,,,,
100024661,2022-10-15 01:00,1.0,,,,70,55,125,,,,,,,
100024661,2022-10-15 02:00,1.0,,,,56,23,79,,,,,,,
100024661,2022-10-15 03:00,1.0,,,,29,30,59,,,,,,,
100024661,2022-10-15 04:00,1.0,,,,32,19,51,,,,,,,
100024661,2022-10-15 05:00,1.0,,,,22,13,35,,,,,,,
100024661,2022-10-15 06:00,1.0,,,,16,6,22,,,,,,,
100024661,2022-10-15 07:00,1.0,,,,19,22,41,,,,,,,
100024661,2022-10-15 08:00,1.0,,,,58,67,125,,,,,,,
100024661,2022-10-15 09:00,1.0,,,,107,116,223,,,,,,,
100024661,2022-10-15 10:00,1.0,,,,174,137,311,,,,,,,
100024661,2022-10-15 11:00,1.0,,,,162,144,306,,,,,,,
100024661,2022-10-15 12:00,1.0,,,,198,191,389,,,,,,,
100024661,2022-10-15 13:00,1.0,,,,229,226,455,,,,,,,
100024661,2022-10-15 14:00,1.0,,,,278,256,534,,,,,,,
100024661,2022-10-15 15:00,1.0,,,,315,300,615,,,,,,,
100024661,2022-10-15 16:00,1.0,,,,285,264,549,,,,,,,
100024661,2022-10-15 17:00,1.0,,,,283,279,562,,,,,,,
100024661,2022-10-15 18:00,1.0,,,,316,289,605,,,,,,,
100024661,2022-10-15 19:00,1.0,,,,238,244,482,,,,,,,
100024661,2022-10-15 20:00,1.0,,,,166,174,340,,,,,,,
100024661,2022-10-15 21:00,1.0,,,,135,124,259,,,,,,,
100024661,2022-10-15 22:00,1.0,,,,116,109,225,,,,,,,
100024661,2022-10-15 23:00,1.0,,,,124,120,244,,,,,,,
100024661,2022-10-16 00:00,1.0,,,,88,103,191,,,,,,,
100024661,2022-10-16 01:00,1.0,,,,60,72,132,,,,,,,
100024661,2022-10-16 02:00,1.0,,,,58,36,94,,,,,,,
100024661,2022-10-16 03:00,1.0,,,,38,34,72,,,,,,,
100024661,2022-10-16 04:00,1.0,,,,33,15,48,,,,,,,
100024661,2022-10-16 05:00,1.0,,,,21,11,32,,,,,,,
100024661,2022-10-16 06:00,1.0,,,,22,17,39,,,,,,,
100024661,2022-10-16 07:00,1.0,,,,34,18,52,,,,,,,
100024661,2022-10-16 08:00,1.0,,,,35,35,70,,,,,,,
100024661,2022-10-16 09:00,1.0,,,,56,77,133,,,,,,,
100024661,2022-10-16 10:00,1.0,,,,95,83,178,,,,,,,
100024661,2022-10-16 11:00,1.0,,,,113,112,225,,,,,,,
100024661,2022-10-16 12:00,1.0,,,,137,141,278,,,,,,,
100024661,2022-10-16 13:00,1.0,,,,176,206,382,,,,,,,
100024661,2022-10-16 14:00,1.0,,,,247,218,465,,,,,,,
100024661,2022-10-16 15:00,1.0,,,,209,187,396,,,,,,,
100024661,2022-10-16 16:00,1.0,,,,243,216,459,,,,,,,
100024661,2022-10-16 17:00,1.0,,,,244,225,469,,,,,,,
100024661,2022-10-16 18:00,1.0,,,,276,205,481,,,,,,,
100024661,2022-10-16 19:00,1.0,,,,211,160,371,,,,,,,
100024661,2022-10-16 20:00,1.0,,,,123,120,243,,,,,,,
100024661,2022-10-16 21:00,1.0,,,,92,106,198,,,,,,,
100024661,2022-10-16 22:00,1.0,,,,91,97,188,,,,,,,
100024661,2022-10-16 23:00,1.0,,,,41,66,107,,,,,,,
100024661,2022-10-17 00:00,1.0,,,,31,30,61,,,,,,,
100024661,2022-10-17 01:00,1.0,,,,11,16,27,,,,,,,
100024661,2022-10-17 02:00,1.0,,,,7,7,14,,,,,,,
100024661,2022-10-17 03:00,1.0,,,,6,7,13,,,,,,,
100024661,2022-10-17 04:00,1.0,,,,7,11,18,,,,,,,
100024661,2022-10-17 05:00,1.0,,,,13,37,50,,,,,,,
100024661,2022-10-17 06:00,1.0,,,,50,121,171,,,,,,,
100024661,2022-10-17 07:00,1.0,,,,168,313,481,,,,,,,
100024661,2022-10-17 08:00,1.0,,,,422,657,1079,,,,,,,
100024661,2022-10-17 09:00,1.0,,,,349,537,886,,,,,,,
100024661,2022-10-17 10:00,1.0,,,,198,239,437,,,,,,,
100024661,2022-10-17 11:00,1.0,,,,175,180,355,,,,,,,
100024661,2022-10-17 12:00,1.0,,,,243,197,440,,,,,,,
100024661,2022-10-17 13:00,1.0,,,,278,232,510,,,,,,,
100024661,2022-10-17 14:00,1.0,,,,295,228,523,,,,,,,
100024661,2022-10-17 15:00,1.0,,,,427,324,751,,,,,,,
100024661,2022-10-17 16:00,1.0,,,,492,369,861,,,,,,,
100024661,2022-10-17 17:00,1.0,,,,608,467,1075,,,,,,,
100024661,2022-10-17 18:00,1.0,,,,641,482,1123,,,,,,,
100024661,2022-10-17 19:00,1.0,,,,427,359,786,,,,,,,
100024661,2022-10-17 20:00,1.0,,,,198,206,404,,,,,,,
100024661,2022-10-17 21:00,1.0,,,,201,162,363,,,,,,,
100024661,2022-10-17 22:00,1.0,,,,164,115,279,,,,,,,
100024661,2022-10-17 23:00,1.0,,,,88,79,167,,,,,,,
100024661,2022-10-18 00:00,1.0,,,,37,41,78,,,,,,,
100024661,2022-10-18 01:00,1.0,,,,20,21,41,,,,,,,
100024661,2022-10-18 02:00,1.0,,,,9,12,21,,,,,,,
100024661,2022-10-18 03:00,1.0,,,,9,5,14,,,,,,,
100024661,2022-10-18 04:00,1.0,,,,2,7,9,,,,,,,
100024661,2022-10-18 05:00,1.0,,,,8,30,38,,,,,,,
100024661,2022-10-18 06:00,1.0,,,,43,66,109,,,,,,,
100024661,2022-10-18 07:00,1.0,,,,123,204,327,,,,,,,
100024661,2022-10-18 08:00,1.0,,,,239,390,629,,,,,,,
100024661,2022-10-18 09:00,1.0,,,,204,303,507,,,,,,,
100024661,2022-10-18 10:00,1.0,,,,108,95,203,,,,,,,
100024661,2022-10-18 11:00,1.0,,,,92,77,169,,,,,,,
100024661,2022-10-18 12:00,1.0,,,,84,78,162,,,,,,,
100024661,2022-10-18 13:00,1.0,,,,120,88,208,,,,,,,
100024661,2022-10-18 14:00,1.0,,,,142,131,273,,,,,,,
100024661,2022-10-18 15:00,1.0,,,,207,186,393,,,,,,,
100024661,2022-10-18 16:00,1.0,,,,272,223,495,,,,,,,
100024661,2022-10-18 17:00,1.0,,,,389,306,695,,,,,,,
100024661,2022-10-18 18:00,1.0,,,,409,336,745,,,,,,,
100024661,2022-10-18 19:00,1.0,,,,283,279,562,,,,,,,
100024661,2022-10-18 20:00,1.0,,,,164,154,318,,,,,,,
100024661,2022-10-18 21:00,1.0,,,,131,102,233,,,,,,,
100024661,2022-10-18 22:00,1.0,,,,125,90,215,,,,,,,
100024661,2022-10-18 23:00,1.0,,,,88,60,148,,,,,,,
100024661,2022-10-19 00:00,1.0,,,,31,43,74,,,,,,,
100024661,2022-10-19 01:00,1.0,,,,18,14,32,,,,,,,
100024661,2022-10-19 02:00,1.0,,,,6,6,12,,,,,,,
100024661,2022-10-19 03:00,1.0,,,,7,6,13,,,,,,,
100024661,2022-10-19 04:00,1.0,,,,2,7,9,,,,,,,
100024661,2022-10-19 05:00,1.0,,,,16,18,34,,,,,,,
100024661,2022-10-19 06:00,1.0,,,,69,90,159,,,,,,,
100024661,2022-10-19 07:00,1.0,,,,172,316,488,,,,,,,
100024661,2022-10-19 08:00,1.0,,,,369,659,1028,,,,,,,
100024661,2022-10-19 09:00,1.0,,,,367,526,893,,,,,,,
100024661,2022-10-19 10:00,1.0,,,,227,247,474,,,,,,,
100024661,2022-10-19 11:00,1.0,,,,182,198,380,,,,,,,
100024661,2022-10-19 12:00,1.0,,,,251,199,450,,,,,,,
100024661,2022-10-19 13:00,1.0,,,,248,225,473,,,,,,,
100024661,2022-10-19 14:00,1.0,,,,280,216,496,,,,,,,
100024661,2022-10-19 15:00,1.0,,,,360,292,652,,,,,,,
100024661,2022-10-19 16:00,1.0,,,,399,323,722,,,,,,,